Other Public Products
Issued by NWS Charleston, SC

Current Version | Previous Version | Graphics & Text | Print | Product List | Glossary On
Versions: 1 2 3 4 5 6 7 8 9 10 11 12 13 14 15 16 17 18 19 20 21 22 23 24 25 26 27 28 29 30 31 32 33 34 35 36 37 38 39 40 41 42 43 44 45 46 47 48 49 50
000 FPUS82 KCHS 240927 OPUCHS TEST...KCHS/KSAV Gateway Observations...TEST National Weather Service Charleston SC 400 AM EST FRI NOV 24 2017 NOTE: "fair" indicates few or no clouds below 12,000 feet with no significant weather and/or obstructions to visibility. SCZ050-WAZ558-NCZ071-TXZ119-213-PAZ071-DCZ001-FLZ074-172-MI076- NYZ176-178-MAZ016-IL014-TNZ027-NJZ106-GAZ044-MD014-241000- ...Gateway Observations for Charleston International... CITY SKY/WX TMP DP RH WIND PRES REMARKS Chas Airport PTCLDY 44 42 93 N8 29.97S Seattle CLOUDY 48 44 86 S14G22 30.01R Charlotte CLEAR 31 30 96 N5 30.05F WCI 26 Dallas DFW PTCLDY 49 33 54 S9 29.96F Dallas Love PTCLDY 50 31 48 SE5 29.98F Philladelphia CLEAR 31 24 75 CALM 30.07S Wash National CLEAR 33 29 85 SW3 30.08F Baltimore CLEAR 27 24 89 CALM 30.06F Miami CLOUDY 73 69 87 S3 29.84S Detroit PTCLDY 30 25 81 S6 29.92S WCI 24 Newark CLEAR 32 21 64 CALM 30.05S Laguardia CLEAR 39 23 52 NW9 30.03F WCI 33 J F K CLEAR 36 24 62 W7 30.05S WCI 30 Boston Logan CLEAR 32 23 69 SW5 29.99S WCI 27 Ft. Lauderdale CLOUDY 72 71 97 CALM 29.83R Chicago O`Hare PTCLDY 35 27 72 S7 29.82F WCI 29 Chicago Midway CLEAR 35 28 75 S8 29.83F WCI 29 Houston Bush CLEAR 43 40 89 CALM 30.04F Houston Hobby PTCLDY 44 40 85 CALM 30.03F Nashville CLEAR 32 27 81 CALM 30.03S Atlanta CLEAR 43 38 82 NE6 30.01S $$ GAZ044-118-TXZ119-213-NCZ071-DCZ001-MDZ014-506-PAZ021-071-NJZ106- NYZ176-178-MAZ106-OHZ011-021-055-MIZ076-KYZ091-ILZ014-INZ047- MNZ060-ONZ431-241000- ...Gateway Observations for Savannah International... CITY SKY/WX TMP DP RH WIND PRES REMARKS Savannah Arpt CLOUDY 45 41 86 N9 29.96S Atlanta CLEAR 43 38 82 NE6 30.01S Charlotte CLEAR 31 30 96 N5 30.05F WCI 26 Dallas DFW PTCLDY 49 33 54 S9 29.96F Houston Bush CLEAR 43 40 89 CALM 30.04F Wash National CLEAR 33 29 85 SW3 30.08F Wash Dulles CLEAR 26 24 92 CALM 30.06F Baltimore CLEAR 27 24 89 CALM 30.06F Philadelphia CLEAR 31 24 75 CALM 30.07S Newark CLEAR 32 21 64 CALM 30.05S Laguardia CLEAR 39 23 52 NW9 30.03F WCI 33 J F K CLEAR 36 24 62 W7 30.05S WCI 30 Boston CLEAR 32 23 69 SW5 29.99S WCI 27 Pittsburg CLOUDY 27 23 85 S6 29.98F WCI 20 Akron CLEAR 28 21 75 S7 29.96F WCI 21 Cleveland CLEAR 34 24 67 S7 29.98S WCI 28 Cincinnati CLOUDY 32 25 75 S5 29.98F WCI 27 Columbus CLOUDY 27 24 85 CALM 29.99F Detroit PTCLDY 30 25 81 S6 29.92S WCI 24 Chicago O`Hare PTCLDY 35 27 72 S7 29.82F WCI 29 Minneapolis PTCLDY 48 37 65 SW7 29.48F Indianapolis CLOUDY 33 23 66 S7 29.94F WCI 27 Toronto Canada MOCLDY 34 25 69 SW6 29.90F WCI 29 $$

USA.gov is the U.S. government's official web portal to all federal, state and local government web resources and services.